sat.trackr.live / text

‹ back to catalog

ECHOSTAR 18

NORAD 41592 · 2016-039B

PAYLOAD ACTIVE UNKNOWN

§ Identity

Operator
Country
US
Launch date
2016-06-18
Launch site
FRGUI
Launch vehicle
Mass (kg)
RCS (m²)
37.71

Purposes: comms

External: N2YO · Heavens-Above · Gunter

§ Orbital elements

Epoch: 2026-05-24T23:22:38.556768Z

Period
1,436.14 min
Inclination
0.0150°
Eccentricity
0.0001572
Mean motion
1.00269056 rev/d
Perigee alt
35,780.7 km
Apogee alt
35,794.0 km
Semi-major
42,165.5 km
B*
0.0000e+0
RAAN
322.3747°
Arg perigee
105.5065°
Mean anomaly
103.9719°
Rev number
3,639

§ Raw data

ECHOSTAR 181 41592U 16039B   26144.97405737  .00000000  00000+0  00000+0 0  99972 41592   0.0150 322.3747 0001572 105.5065 103.9719  1.00269056 36394

JSON: /api/v1/satellites/41592 · /tle

For live sub-satellite position, see the globe view (requires WebGL).

§ Visibility from observer

Set your observer location to see the next 7 days of passes ≥ 10°. The values pass through the URL so the page stays shareable.

No JS? Fill the form by hand. The geolocation button needs JavaScript.